Terminal Aerodrome Forecast
Issued by NWS Omaha/Valley, NE

Home | Current Version | Previous Version | Graphics & Text | Print | Product List | Glossary On
Versions: 1 2 3 4 5 6 7 8 9 10 11 12 13 14 15 16 17 18 19 20 21 22 23 24 25 26 27 28
000
FTUS43 KOAX 221736
TAFOFK
TAF
KOFK 221736Z 2218/2318 03005KT P6SM SCT020 BKN040
      TEMPO 2218/2220 BKN020
     FM230500 11009KT 6SM -SHRA BR OVC040
      TEMPO 2308/2312 3SM TSRA BR OVC020CB
     FM231500 13011KT P6SM BKN040=

USA.gov is the U.S. government's official web portal to all federal, state and local government web resources and services.